Theta_e
337 335 334 332 330 329 328 327 325 324 323 322 321 321 321 321 320 320 320 320 319 318 318 318 319 319 320 321 322 322 321 321 322 321 320 319 317 318 319 318 318 317 317
329 326 325 324 322 321 320 319 319 318 317 316 317 316 316 315 315 315 315 315 316 317 317 316 317 318 318 318 319 319 319 317 317 316 316 317 317 318 317 317 316 315 315
324 322 320 319 318 316 316 315 314 314 314 314 314 314 314 314 315 315 314 312 312 311 312 313 315 316 317 317 316 317 316 315 316 317 317 316 316 317 317 316 316 316 316
320 319 318 317 316 316 315 315 315 315 315 314 315 315 315 314 311 309 308 308 309 309 310 312 313 313 315 314 314 315 315 315 315 315 314 314 315 315 315 316 316 316 316
317 316 316 315 314 314 314 314 315 315 315 315 315 314 313 311 307 306 305 305 306 308 310 311 313 313 313 314 314 313 312 312 312 312 313 313 314 314 314 315 315 315 316
314 313 313 313 313 313 313 314 313 313 312 312 312 311 309 307 307 306 305 305 305 308 312 313 313 313 313 312 311 311 308 306 307 308 308 309 309 310 310 311 312 313 313
311 311 312 312 312 312 311 311 310 309 309 308 308 308 308 306 306 305 305 306 307 309 309 308 309 310 311 307 305 305 306 304 304 304 306 307 308 308 308 309 309 310 310
311 311 311 311 311 310 309 308 308 307 306 306 306 306 307 306 304 303 304 303 303 307 309 309 311 310 306 301 300 300 301 303 305 303 304 304 305 306 306 306 307 307 306
311 310 310 310 309 308 308 307 306 306 305 305 304 306 306 305 302 302 302 301 305 305 306 308 308 304 300 299 298 298 299 301 302 303 307 309 311 312 311 305 303 304 305
310 309 309 308 307 306 305 304 303 303 304 304 304 305 304 302 300 302 301 301 302 302 306 306 304 299 296 298 298 297 298 298 300 304 307 309 310 312 309 308 307 304 305
308 307 307 306 305 304 303 303 302 302 302 300 301 303 302 300 299 301 301 301 300 302 305 303 298 296 295 296 296 296 296 299 300 302 305 308 311 312 309 308 307 307 306
306 305 305 304 303 302 301 301 300 300 300 298 299 300 300 298 297 299 299 300 302 303 302 298 296 295 295 295 295 296 297 298 300 301 304 306 308 311 307 306 306 306 306
304 304 303 302 301 300 299 297 296 296 296 295 295 296 297 297 294 295 297 299 301 301 301 298 296 295 295 295 295 295 297 297 298 300 302 306 311 310 307 306 306 306 306
303 302 303 302 299 297 296 294 292 291 292 292 292 293 294 293 292 293 297 299 301 301 300 297 296 295 295 295 295 295 295 296 297 298 303 308 313 311 309 307 306 306 307
301 300 300 302 299 296 293 292 291 288 288 289 288 290 291 290 290 294 296 299 299 301 300 296 295 295 295 294 294 294 294 295 296 297 302 306 311 312 311 310 310 311 310
300 300 300 301 300 297 295 292 290 288 288 288 288 287 288 290 293 296 299 298 299 300 301 297 295 294 293 293 293 294 293 293 294 297 300 304 309 309 308 308 313 311 312
298 299 300 300 299 296 293 291 290 289 289 289 290 289 288 289 293 295 297 297 295 293 294 294 294 293 292 291 292 293 293 292 293 296 299 303 309 308 307 306 306 307 307
298 299 300 300 299 297 293 290 289 289 289 289 291 291 292 292 291 290 292 293 292 292 291 292 291 291 291 290 292 292 293 293 293 296 298 302 305 310 308 306 304 304 305
299 299 299 299 298 297 293 292 292 292 292 290 291 292 292 294 293 292 291 288 288 289 290 291 291 290 290 290 290 291 292 292 293 295 297 301 305 308 309 308 307 302 302
295 295 297 298 297 296 295 294 294 293 293 292 291 291 293 295 294 294 293 292 289 288 288 290 291 290 289 289 289 290 290 291 291 294 296 300 303 306 309 309 307 302 302
295 294 294 293 294 294 294 293 293 293 293 293 291 292 293 293 294 293 294 294 292 290 290 290 289 289 288 287 287 288 288 288 288 291 294 298 303 304 307 310 307 306 303
295 294 293 293 292 292 292 292 292 292 292 292 292 292 292 292 292 293 293 293 293 292 291 291 289 287 286 286 285 286 286 286 287 289 292 297 302 303 305 307 311 307 305
294 293 293 293 293 292 292 291 291 291 291 291 291 291 291 291 291 291 292 292 292 292 291 291 288 286 285 284 284 284 285 286 288 288 292 297 300 301 303 303 306 307 306
294 294 293 293 292 292 292 292 291 290 291 291 291 291 291 291 291 291 290 291 291 291 290 290 289 286 284 283 283 285 287 289 290 292 293 296 296 299 301 301 302 303 304
293 293 293 293 293 292 292 292 291 291 290 290 290 290 290 290 289 290 290 289 290 290 290 288 288 286 283 282 282 284 287 288 289 291 292 292 293 296 300 299 300 300 300
292 292 292 292 292 291 291 291 290 291 290 290 290 289 289 288 289 288 289 288 288 288 288 288 287 286 284 281 282 282 285 286 287 289 290 290 292 292 295 299 299 299 299
Wind_Speed
21 23 22 23 21 20 19 16 14 12 9 8 6 6 7 7 8 8 12 13 12 17 20 20 21 22 23 23 22 22 24 24 14 22 25 27 34 36 33 31 27 28 29
24 23 22 20 19 18 17 14 13 11 9 8 9 9 9 11 12 12 14 16 16 16 19 22 23 22 24 24 23 23 22 24 25 21 28 28 28 29 34 31 32 34 32
21 20 18 17 17 16 14 12 12 10 9 9 9 9 11 11 11 13 14 17 20 21 21 23 24 24 24 23 25 21 22 25 25 26 27 26 29 29 30 33 31 32 34
20 18 17 16 15 14 13 12 10 9 8 8 8 8 9 10 11 14 17 20 20 20 21 21 23 24 23 25 25 25 25 25 23 25 27 28 26 31 30 29 27 28 27
20 19 18 17 15 14 13 12 11 11 10 10 10 12 11 13 17 21 24 19 19 20 21 22 21 24 26 24 23 20 22 20 21 23 23 25 26 26 26 29 28 29 25
19 18 16 15 15 15 14 14 14 14 14 12 12 14 13 10 16 21 24 25 19 19 21 23 23 23 24 28 27 29 31 25 26 24 24 22 29 30 30 28 26 20 9
19 17 16 15 16 16 15 15 14 13 12 11 17 17 12 12 18 22 25 19 19 19 20 24 25 22 20 24 33 37 39 35 27 26 27 29 28 31 29 27 26 23 20
19 18 16 15 15 15 16 16 16 16 15 13 13 14 11 11 19 25 26 21 18 21 22 23 23 19 24 41 43 36 30 30 30 27 26 31 33 36 32 30 28 27 27
19 18 16 16 17 16 17 17 16 14 15 13 13 12 12 13 21 25 29 24 22 23 22 23 21 31 39 34 26 27 29 31 30 31 32 29 26 25 27 31 21 13 9
18 17 17 16 17 16 16 16 16 15 14 14 13 13 13 16 22 22 29 24 23 24 22 23 24 34 31 25 27 25 25 31 37 35 31 29 29 23 20 18 21 13 8
17 16 16 18 18 17 15 15 16 15 15 16 14 13 16 20 23 22 25 29 23 21 25 26 30 31 31 26 26 25 27 28 29 26 24 24 21 16 18 16 13 15 9
16 16 18 19 17 17 18 17 19 17 16 16 15 15 17 20 23 21 25 25 22 20 21 32 32 32 31 28 29 31 27 26 24 24 22 23 23 17 20 16 12 6 4
15 17 16 18 19 19 18 18 16 15 16 16 16 16 17 19 25 24 20 25 20 20 23 33 30 33 33 31 33 34 30 30 28 26 25 26 19 13 18 14 11 9 7
16 15 15 16 17 18 16 15 16 17 15 14 15 16 17 19 23 26 25 26 25 21 21 34 28 28 30 31 36 38 33 32 27 25 27 29 20 17 12 10 9 9 9
15 14 12 13 13 14 16 15 14 17 15 13 15 14 17 19 24 21 20 24 28 25 15 29 33 37 38 38 38 37 35 37 35 34 30 28 25 21 16 11 12 7 5
13 12 8 12 14 13 12 11 16 15 18 17 22 24 15 17 18 18 19 21 23 25 18 23 27 29 31 31 33 34 34 36 36 33 30 29 25 23 23 24 19 16 11
13 10 10 11 13 12 12 12 12 16 18 20 19 21 31 32 21 19 23 23 26 25 25 25 25 28 28 30 31 30 32 33 32 33 32 33 22 25 22 22 19 17 14
14 11 11 11 13 12 12 11 17 16 18 22 23 21 18 23 35 36 24 22 25 26 26 24 27 27 29 31 31 33 34 36 36 33 33 31 32 21 19 18 19 15 13
10 9 12 12 11 11 8 9 13 19 17 18 21 21 20 12 19 31 38 33 25 26 24 25 25 28 29 31 32 32 32 34 34 35 36 34 32 27 20 20 17 21 17
15 15 14 12 12 12 11 10 12 14 15 15 19 22 25 18 20 19 26 31 32 25 24 26 26 28 30 31 32 33 34 34 35 35 37 36 36 34 29 23 21 19 18
14 13 14 14 14 13 13 14 15 16 15 12 15 22 22 21 20 22 21 22 23 26 25 25 28 29 30 31 32 32 33 34 36 35 35 33 35 33 33 25 24 21 19
14 14 15 14 14 15 15 14 15 16 16 16 18 19 22 21 22 21 21 22 23 23 25 22 27 29 30 31 33 32 34 36 39 37 38 33 33 32 32 31 24 20 17
15 15 15 14 14 15 15 16 16 15 16 18 18 19 20 21 22 24 22 21 22 22 25 24 27 29 31 32 33 32 35 39 40 36 37 30 31 33 31 30 29 26 18
15 15 15 15 14 15 15 15 15 16 16 17 17 18 19 20 21 22 24 23 22 23 24 26 24 29 32 35 36 33 33 35 39 38 34 29 31 31 30 31 29 29 27
15 14 14 14 14 14 14 15 15 15 16 17 17 18 20 20 22 22 22 24 22 23 23 26 23 26 31 33 35 34 30 31 33 35 34 32 32 28 27 29 29 28 30
14 14 13 13 13 14 14 14 14 15 15 16 16 17 18 20 20 23 22 23 23 23 23 24 25 23 32 35 35 34 32 32 33 35 33 33 32 35 29 24 26 25 27
Wind_Direction
110 103 97 90 90 90 88 87 84 81 69 54 35 8 352 347 335 341 329 317 325 326 320 315 309 307 302 298 299 299 294 290 296 307 308 307 303 299 293 296 293 295 294
97 92 89 92 92 88 83 79 76 67 51 34 20 7 353 351 345 340 330 321 323 336 337 328 318 314 309 308 304 303 306 308 303 297 298 295 289 288 285 285 290 290 287
101 100 97 94 91 87 83 76 66 55 39 24 13 3 356 346 341 347 359 357 348 339 326 319 315 313 311 309 308 308 304 295 286 285 293 293 289 289 288 287 282 280 282
110 104 98 93 89 83 76 67 57 47 36 19 5 356 356 5 9 1 352 342 337 326 319 315 313 309 311 319 311 305 300 298 296 293 290 291 292 292 286 283 279 273 270
102 96 92 84 77 74 69 61 51 41 30 15 8 11 8 18 12 359 350 341 329 322 317 313 314 313 314 319 326 326 322 314 306 300 296 295 291 290 284 285 287 290 282
97 93 87 82 74 65 59 54 47 39 32 21 18 12 21 20 354 350 341 336 331 320 320 325 327 327 321 321 313 311 314 312 301 297 293 286 286 285 285 284 285 285 286
87 83 78 73 67 60 56 50 43 37 27 16 21 30 29 12 357 346 344 353 335 332 331 331 336 331 323 330 325 321 314 310 300 295 287 283 289 289 291 288 278 277 274
79 76 70 68 64 58 55 48 37 34 24 13 11 19 19 11 357 354 357 354 353 348 341 338 335 339 336 334 328 320 319 320 325 313 295 290 289 291 286 282 282 284 281
73 68 66 62 60 55 49 43 32 26 30 24 23 24 24 9 2 4 3 7 356 350 347 341 350 342 335 333 336 330 323 323 323 318 315 316 313 307 312 295 278 271 277
71 67 63 66 61 54 45 38 30 24 27 24 19 27 24 17 3 17 13 13 353 348 349 351 346 340 344 355 353 345 328 323 328 330 331 323 321 314 327 313 287 255 248
72 70 62 60 63 50 44 39 31 32 31 26 20 25 29 11 9 25 24 9 1 350 356 355 349 354 358 3 358 349 336 330 330 321 321 326 331 332 340 340 319 267 235
72 70 63 60 56 47 44 36 35 28 32 24 20 19 15 14 4 27 23 11 19 16 4 0 354 360 6 3 359 355 356 352 341 339 338 336 330 352 357 358 353 336 284
75 72 69 65 57 49 46 36 32 29 32 23 15 13 7 11 1 15 19 19 24 15 13 1 4 8 12 6 5 5 6 0 352 347 337 329 335 351 9 18 28 43 76
72 67 65 70 66 53 49 46 42 33 25 23 21 10 4 9 360 12 13 14 10 7 3 5 8 12 15 11 9 10 5 359 353 346 340 340 358 10 8 30 38 64 81
68 63 65 70 85 72 62 54 52 44 39 28 25 15 3 4 358 9 7 11 5 358 7 8 14 15 11 7 5 4 2 2 358 355 351 351 1 10 360 343 348 328 103
68 59 46 76 74 72 69 63 44 47 48 50 47 40 23 19 15 22 32 30 15 27 20 17 16 14 10 1 359 357 2 360 355 353 355 355 6 11 10 17 28 50 61
64 57 66 72 80 68 63 61 51 54 53 45 37 38 47 39 30 41 43 39 31 38 26 19 18 12 4 1 359 358 355 356 358 360 359 359 5 20 19 21 18 24 23
86 79 68 61 77 75 76 68 53 48 32 29 28 20 20 34 38 44 43 39 32 24 20 19 16 11 7 1 359 358 355 358 1 360 360 359 0 12 24 21 23 21 25
73 62 94 80 76 90 88 61 67 49 38 34 22 17 8 17 31 35 40 42 33 22 12 14 18 14 7 3 1 0 359 357 359 0 1 0 3 1 24 20 18 30 35
65 51 59 67 73 75 66 59 53 54 47 36 29 21 22 36 31 30 33 36 36 34 24 18 15 14 11 6 3 2 0 1 359 360 358 359 0 3 5 32 33 38 37
81 70 69 63 53 55 53 50 48 47 48 49 48 41 36 31 35 31 36 31 27 29 26 25 21 17 11 8 5 4 2 360 1 356 355 357 2 1 5 13 39 39 45
76 75 71 67 68 59 57 50 52 52 46 46 38 43 44 38 31 31 34 38 27 30 28 29 27 21 15 11 6 4 1 1 4 355 355 358 4 6 7 10 22 37 45
78 72 69 68 66 67 65 62 53 55 54 47 42 35 44 40 35 27 27 31 33 32 32 29 33 23 17 15 13 10 4 6 8 359 4 1 6 9 11 12 15 21 35
70 75 82 76 74 57 66 59 59 56 47 47 45 40 35 41 36 34 25 24 31 30 35 27 33 25 17 14 17 19 18 17 17 15 15 7 7 12 16 16 17 16 19
67 67 63 61 65 62 61 58 61 54 52 40 44 41 34 36 34 26 30 22 25 29 30 29 28 22 18 15 18 21 22 24 24 21 18 9 10 12 18 21 20 21 20
68 65 64 61 54 53 51 59 45 48 47 49 37 42 41 31 34 25 23 22 20 22 24 24 19 12 13 14 15 20 24 26 25 23 17 11 11 12 14 22 24 25 24